Charleston, SC

8:13 AM EDT on August 19, 2017 (GMT -0400)
Charleston Executive

Weather History for KJZI - December, 2013

Change the Weather History Date:

Saturday, December 7, 2013

  Actual Average (KCHS) Record (KCHS)
Temperature  
Mean Temperature 64 °F -  
Max Temperature 78 °F 62 °F 81 °F (1951)
Min Temperature 51 °F 41 °F 23 °F (1984)
Growing Degree Days 14 (Base 50)    
Moisture  
Dew Point 61 °F    
Average Humidity 87    
Maximum Humidity 100    
Minimum Humidity 65    
Precipitation  
Precipitation 0.00 in - - ()
Sea Level Pressure  
Sea Level Pressure 30.20 in    
Wind  
Wind Speed 9 mph (SW)    
Max Wind Speed 15 mph    
Max Gust Speed 22 mph    
Visibility 8 miles    
Events Rain    
Averages and records for this station are not official NWS values.
T = Trace of Precipitation, MM = Missing Value Source: NWS Daily Summary

Daily Weather History Graph

Daily Weather History Graph

Search for Another Location

Airport or City:

Trip Planner

Search our weather history database for the weather conditions in past years. The results will help you decide how hot, cold, wet, or windy it might be!

Date:

Astronomy

Dec. 07, 2013 Rise Set
Actual Time 7:09 AM EST 5:13 PM EST
Civil Twilight 6:42 AM EST 5:40 PM EST
Nautical Twilight 6:11 AM EST 6:11 PM EST
Astronomical Twilight 5:41 AM EST 6:41 PM EST
Moon 11:04 AM EST (12/7) 10:41 PM EST (12/7)
Length of Visible Light 10h 58m
Length of Day
10h 04m
Waxing Crescent, 29% of the Moon is Illuminated
Dec 7
Waxing Crescent
Dec 9
First Quarter
Dec 17
Full
Dec 25
Last Quarter
Jan 1
New

Hourly Weather History & Observations

Time (EST) Temp. Dew Point Humidity Pressure Visibility Wind Dir Wind Speed Gust Speed Precip Events Conditions
12:15 AM 68.0 °F 64.4 °F 88% 30.13 in 10.0 mi SW 12.7 mph 20.7 mph 0.00 in   Clear
12:35 AM 68.0 °F 64.4 °F 88% 30.13 in 10.0 mi SW 12.7 mph 17.3 mph 0.00 in   Clear
12:55 AM 68.0 °F 64.4 °F 88% 30.13 in 10.0 mi SW 11.5 mph 21.9 mph 0.00 in   Clear
1:15 AM 68.0 °F 64.4 °F 88% 30.13 in 10.0 mi SW 10.4 mph 19.6 mph 0.00 in   Clear
1:35 AM 66.2 °F 64.4 °F 94% 30.13 in 10.0 mi SSW 10.4 mph - 0.00 in   Clear
1:55 AM 66.2 °F 64.4 °F 94% 30.13 in 10.0 mi SW 10.4 mph - 0.00 in   Clear
2:15 AM 66.2 °F 62.6 °F 88% 30.13 in 10.0 mi SSW 8.1 mph - 0.00 in   Clear
2:35 AM 66.2 °F 62.6 °F 88% 30.13 in 9.0 mi SSW 9.2 mph - 0.00 in   Clear
2:55 AM 66.2 °F 62.6 °F 88% 30.13 in 10.0 mi SSW 9.2 mph - 0.00 in   Clear
3:15 AM 66.2 °F 62.6 °F 88% 30.13 in 10.0 mi SSW 9.2 mph - 0.00 in   Clear
3:35 AM 66.2 °F 62.6 °F 88% 30.12 in 10.0 mi SSW 9.2 mph 16.1 mph 0.00 in   Clear
3:55 AM 66.2 °F 62.6 °F 88% 30.13 in 10.0 mi SW 9.2 mph - 0.00 in   Clear
4:15 AM 66.2 °F 64.4 °F 94% 30.13 in 10.0 mi SW 8.1 mph - 0.00 in   Clear
4:35 AM 66.2 °F 64.4 °F 94% 30.13 in 10.0 mi SW 6.9 mph - 0.00 in   Clear
4:55 AM 66.2 °F 64.4 °F 94% 30.14 in 10.0 mi West 6.9 mph - 0.00 in   Clear
5:15 AM 66.2 °F 64.4 °F 94% 30.14 in 10.0 mi WSW 5.8 mph - 0.00 in   Clear
5:35 AM 66.2 °F 64.4 °F 94% 30.14 in 10.0 mi WSW 4.6 mph - 0.00 in   Clear
5:55 AM 66.2 °F 64.4 °F 94% 30.14 in 9.0 mi SW 5.8 mph - 0.00 in   Clear
6:15 AM 66.2 °F 64.4 °F 94% 30.15 in 9.0 mi SW 6.9 mph - 0.00 in   Clear
6:35 AM 66.2 °F 64.4 °F 94% 30.15 in 9.0 mi SSW 6.9 mph - 0.00 in   Clear
6:55 AM 66.2 °F 64.4 °F 94% 30.16 in 9.0 mi SW 6.9 mph - 0.00 in   Mostly Cloudy
7:15 AM 66.2 °F 64.4 °F 94% 30.17 in 8.0 mi SW 5.8 mph - 0.00 in   Scattered Clouds
7:35 AM 66.2 °F 64.4 °F 94% 30.17 in 7.0 mi Calm Calm - 0.00 in   Mostly Cloudy
7:55 AM 66.2 °F 64.4 °F 94% 30.18 in 7.0 mi SW 5.8 mph - 0.00 in   Scattered Clouds
8:15 AM 66.2 °F 64.4 °F 94% 30.19 in 7.0 mi West 11.5 mph - 0.00 in   Mostly Cloudy
8:35 AM 66.2 °F 64.4 °F 94% 30.19 in 3.0 mi West 11.5 mph - 0.00 in   Overcast
8:55 AM 66.2 °F 66.2 °F 100% 30.19 in 3.0 mi West 4.6 mph - 0.00 in   Overcast
9:15 AM 68.0 °F 66.2 °F 94% 30.20 in 5.0 mi WSW 10.4 mph - 0.00 in   Overcast
9:35 AM 69.8 °F 66.2 °F 88% 30.21 in 6.0 mi WSW 8.1 mph - 0.00 in   Overcast
9:55 AM 69.8 °F 66.2 °F 88% 30.21 in 6.0 mi WSW 5.8 mph - 0.00 in   Overcast
10:15 AM 71.6 °F 66.2 °F 83% 30.21 in 7.0 mi WSW 4.6 mph - 0.00 in   Mostly Cloudy
10:35 AM 73.4 °F 66.2 °F 78% 30.21 in 8.0 mi SW 6.9 mph - 0.00 in   Scattered Clouds
10:55 AM 75.2 °F 66.2 °F 73% 30.21 in 10.0 mi West 8.1 mph - 0.00 in   Partly Cloudy
11:15 AM 77.0 °F 66.2 °F 69% 30.20 in 10.0 mi WSW 11.5 mph - 0.00 in   Clear
11:35 AM 78.8 °F 66.2 °F 65% 30.20 in 10.0 mi SW 8.1 mph - 0.00 in   Clear
11:55 AM 75.2 °F 66.2 °F 73% 30.19 in 9.0 mi SSE 8.1 mph - 0.00 in   Partly Cloudy
12:15 PM 77.0 °F 66.2 °F 69% 30.18 in 10.0 mi South 5.8 mph - 0.00 in   Mostly Cloudy
12:35 PM 77.0 °F 66.2 °F 69% 30.17 in 10.0 mi SSE 5.8 mph - 0.00 in   Mostly Cloudy
12:55 PM 75.2 °F 66.2 °F 73% 30.17 in 10.0 mi South 10.4 mph - 0.00 in   Scattered Clouds
1:15 PM 75.2 °F 66.2 °F 73% 30.16 in 10.0 mi South 10.4 mph - 0.00 in   Mostly Cloudy
1:35 PM 73.4 °F 64.4 °F 73% 30.16 in 10.0 mi SSW 9.2 mph - 0.00 in   Overcast
1:55 PM 71.6 °F 64.4 °F 78% 30.16 in 10.0 mi SSW 9.2 mph - 0.00 in   Overcast
2:15 PM 73.4 °F 64.4 °F 73% 30.16 in 10.0 mi SSW 5.8 mph - 0.00 in   Overcast
2:35 PM 71.6 °F 66.2 °F 83% 30.15 in 10.0 mi SSW 8.1 mph - 0.00 in   Mostly Cloudy
2:55 PM 71.6 °F 66.2 °F 83% 30.16 in 10.0 mi SSW 6.9 mph - 0.00 in   Overcast
3:15 PM 71.6 °F 66.2 °F 83% 30.16 in 9.0 mi Calm Calm - 0.00 in   Overcast
3:35 PM 73.4 °F 66.2 °F 78% 30.17 in 5.0 mi West 3.5 mph - 0.00 in   Haze
3:55 PM 73.4 °F 66.2 °F 78% 30.17 in 9.0 mi Calm Calm - 0.00 in   Overcast
4:15 PM 66.2 °F 62.6 °F 88% 30.20 in 10.0 mi NNE 13.8 mph 19.6 mph 0.00 in   Overcast
4:35 PM 62.6 °F 59.0 °F 88% 30.21 in 10.0 mi North 8.1 mph - 0.00 in Rain Light Rain
4:55 PM 62.6 °F 59.0 °F 88% 30.22 in 10.0 mi NE 10.4 mph - 0.00 in   Overcast
5:15 PM 60.8 °F 57.2 °F 88% 30.23 in 10.0 mi NNE 9.2 mph - 0.00 in   Overcast
5:35 PM 59.0 °F 57.2 °F 94% 30.24 in 10.0 mi NNE 9.2 mph - 0.00 in   Overcast
5:55 PM 59.0 °F 57.2 °F 94% 30.25 in 10.0 mi NE 9.2 mph - 0.00 in   Overcast
6:15 PM 57.2 °F 55.4 °F 94% 30.26 in 10.0 mi NE 11.5 mph - 0.00 in   Overcast
6:35 PM 57.2 °F 55.4 °F 94% 30.27 in 10.0 mi NE 11.5 mph - 0.00 in   Overcast
6:55 PM 57.2 °F 53.6 °F 88% 30.28 in 10.0 mi ENE 13.8 mph - 0.00 in   Overcast
7:15 PM 55.4 °F 53.6 °F 94% 30.28 in 10.0 mi NE 9.2 mph - 0.00 in   Overcast
7:35 PM 55.4 °F 53.6 °F 94% 30.29 in 9.0 mi NNE 11.5 mph - 0.00 in   Overcast
7:55 PM 55.4 °F 53.6 °F 94% 30.30 in 5.0 mi NE 10.4 mph - 0.00 in   Overcast
8:15 PM 55.4 °F 51.8 °F 88% 30.30 in 5.0 mi NE 11.5 mph - 0.00 in   Overcast
8:35 PM 53.6 °F 51.8 °F 94% 30.31 in 2.0 mi NE 10.4 mph - 0.00 in   Overcast
8:55 PM 53.6 °F 51.8 °F 94% 30.31 in 3.0 mi NE 10.4 mph - 0.00 in   Overcast
9:15 PM 51.8 °F 50.0 °F 94% 30.32 in 5.0 mi NE 10.4 mph - 0.00 in   Overcast
9:35 PM 51.8 °F 50.0 °F 94% 30.33 in 6.0 mi NE 9.2 mph - 0.00 in   Overcast
9:55 PM 51.8 °F 50.0 °F 94% 30.33 in 7.0 mi NE 15.0 mph 19.6 mph 0.00 in   Overcast
10:15 PM 51.8 °F 50.0 °F 94% 30.33 in 4.0 mi NE 11.5 mph 20.7 mph 0.00 in   Overcast
10:35 PM 51.8 °F 48.2 °F 88% 30.34 in 5.0 mi NE 13.8 mph 18.4 mph 0.00 in   Overcast
10:55 PM 51.8 °F 48.2 °F 88% 30.34 in 5.0 mi NNE 13.8 mph - 0.00 in   Overcast
11:15 PM 51.8 °F 48.2 °F 88% 30.33 in 4.0 mi NNE 11.5 mph - 0.00 in   Overcast
11:35 PM 51.8 °F 48.2 °F 88% 30.34 in 4.0 mi NE 8.1 mph - 0.00 in   Overcast
11:55 PM 51.8 °F 48.2 °F 88% 30.33 in 7.0 mi NE 9.2 mph - 0.00 in   Overcast